Regional Weather Roundup
Issued by NWS

Home | Current Version | Previous Version | Text Only | Print | Product List | Glossary On
Versions: 1 2 3 4 5 6 7 8 9 10 11 12 13 14 15 16 17 18 19 20 21 22 23 24 25 26 27 28 29 30 31 32 33 34 35 36 37 38 39 40 41 42 43 44 45 46 47 48 49 50
000
ASUS43 KDMX 211701
RWRIA

WEATHER ROUNDUP FOR IOWA
NATIONAL WEATHER SERVICE DES MOINES IA
1200 PM CDT MON AUG 21 2017

NOTE: "FAIR" INDICATES FEW OR NO CLOUDS BELOW 12,000 FEET WITH NO
SIGNIFICANT WEATHER AND/OR OBSTRUCTIONS TO VISIBILITY.

* - THESE STATIONS ARE NOT NWS STATIONS...THUS NOT UNDER NWS
QUALITY CONTROL.  THEY ALSO DO NOT REPORT WEATHER SUCH
AS PRECIPITATION OR FOG.

IAZ001>003-012>014-020>022-031>034-043>046-211800-
   NORTHWEST IOWA

CITY           SKY/WX    TMP DP  RH WIND       PRES   REMARKS
CARROLL *      CLOUDY    72  68  88 S12       29.98F
CHEROKEE *     MOSUNNY   77  69  77 S17G23    29.92F
DENISON *      CLOUDY    75  68  78 S14G22    29.99F
LE MARS *      SUNNY    102 N/A N/A S18G31    29.91F
ORANGE CITY *  MOSUNNY   79  70  73 S17       29.93R HX  81
SHELDON *      CLOUDY    73  66  78 CALM      29.95R
SIOUX CITY     SUNNY     79  70  74 S16G25    29.94F HX  82
SPENCER        TSTM      72  64  76 CALM      29.95F
STORM LAKE *   SUNNY     75  68  78 S14G22    29.95F
$$

IAZ055>058-069>071-079>083-090>094-211800-
   SOUTHWEST IOWA

CITY           SKY/WX    TMP DP  RH WIND       PRES   REMARKS
ATLANTIC *     MOSUNNY   75  68  78 SE10      30.00F
AUDUBON *      MOSUNNY   75  70  83 S13G21    30.02S
CLARINDA *     CLOUDY    77  68  73 S12G20    30.05F
COUNCIL BLFS * PTSUNNY   77  70  78 S17G25    29.99F
CRESTON *      MOSUNNY   75  68  78 SE14      30.04F
HARLAN  *      CLOUDY    75  68  78 SE16      30.03F
LAMONI         CLOUDY    77  64  64 SE10G18   30.07F
RED OAK *      MOSUNNY   77  68  73 S15       30.01F
SHENANDOAH *   CLOUDY    75  66  73 SE14G28   30.02S
$$

IAZ047>049-059>061-072>074-084-211800-
   CENTRAL IOWA

CITY           SKY/WX    TMP DP  RH WIND       PRES   REMARKS
AMES           CLOUDY    77  69  76 S12       29.96F
ANKENY *       PTSUNNY   72  66  83 SE3       29.98F
BOONE *        PTSUNNY   73  64  73 SW13      29.96F
CHARITON *     PTSUNNY   77  66  69 SE13      30.03F
DES MOINES     CLOUDY    72  68  87 S18       29.99F THUNDER
GRINNELL*      CLOUDY    78  56  46 S25G36    29.95F
KNOXVILLE *    PTSUNNY   68  66  94 S14G21    30.00F
MARSHALLTOWN   CLOUDY    75  64  68 MISG      29.98F
NEWTON *       CLOUDY    77  61  57 S17G25    29.96F
PELLA *        LGT RAIN  68  67  97 SE5       30.01F
PERRY *        LGT RAIN  72  69  92 SW12      30.01S
$$

IAZ004>006-015-016-023>025-035-036-211800-
   NORTH CENTRAL IOWA

CITY           SKY/WX    TMP DP  RH WIND       PRES   REMARKS
ALGONA *       CLOUDY    72  66  83 S5        30.00R
CLARION *      CLOUDY    68  66  94 NE5       29.98F
ESTHERVILLE    CLOUDY    73  66  78 CALM      29.97F
FORT DODGE *   CLOUDY    70  61  73 W8        29.99F THUNDER
MASON CITY     CLOUDY    71  64  78 SE5       30.02S
FOREST CITY *    N/A     73  63  68 SE7       30.00F
WEBSTER CITY * CLOUDY    70  63  78 S15G23    29.90F
IOWA FALLS *     N/A     70  65  84 CALM      30.01R
$$

IAZ007>011-017>019-026>030-037>042-050>054-066-211800-
   NORTHEAST IOWA

CITY           SKY/WX    TMP DP  RH WIND       PRES   REMARKS
CEDAR RAPIDS   CLOUDY    71  67  87 S14G20    30.04S
CHARLES CITY * CLOUDY    72  68  88 SE5       30.00F
CLINTON *      CLOUDY    73  68  84 SE9       30.05F
DECORAH *      CLOUDY    73  64  73 SE6       30.00F
DUBUQUE        CLOUDY    74  66  76 S14G24    30.07R
MONTICELLO *   CLOUDY    75  68  78 S9G16     30.05S
OELWEIN *      CLOUDY    73  68  83 SE10      30.03F
WATERLOO       CLOUDY    75  63  66 E8        29.99F
$$

IAZ064-065-067-068-078-211800-
   EAST CENTRAL IOWA

CITY           SKY/WX    TMP DP  RH WIND       PRES   REMARKS
DAVENPORT      CLOUDY    74  67  78 S10       30.06F
IOWA CITY      CLOUDY    74  67  78 SW7       30.09R
MUSCATINE *    CLOUDY    75  68  78 S18       30.05F
QUAD CITIES    CLOUDY    75  67  76 S7        30.05S
$$

IAZ062-063-075>077-085>089-095>099-211800-
   SOUTHEAST IOWA

CITY           SKY/WX    TMP DP  RH WIND       PRES   REMARKS
BURLINGTON     CLOUDY    74  70  87 S8        30.08F
FAIRFIELD *    CLOUDY    77  66  69 S10G20    30.04F
FORT MADISON * CLOUDY    73  70  88 S6        30.09F
KEOKUK *       LGT RAIN  72  72 100 SE6       30.08F
OSKALOOSA *      N/A     71  67  88 S8        30.05F
OTTUMWA        CLOUDY    76  66  71 S13G18    30.06F
WASHINGTON *   PTSUNNY   73  70  88 CALM      30.07S
$$

ABBREVIATIONS USED IN REMARKS
   TC - TEMPERATURES IN CELSIUS
  WCI - WIND CHILL INDEX
   HX - HEAT INDEX
  VSB - VISIBILITY
$$





USA.gov is the U.S. government's official web portal to all federal, state and local government web resources and services.